Location: Tr�vern
(48.0333°N, 4.6000°W)
Time: 08:16:28
(UTC+00:00)

Abrixas rocket - Pass Details

Date: 14 July 2020
Orbit: 339 x 347 km, 48.4° (Epoch: 04 August)

Event Time Altitude Azimuth Distance (km) Brightness Sun altitude
Exits shadow 01:32:57 70° 64° (ENE) 365 2.0 -18.7°
Drops below altitude 10° 01:35:35 10° 90° (E) 1,284 4.9 -18.5°
Sets 01:37:35 0° 92° (E) 2,122 6.0 -18.4°
